Hourly Data Report for June 21, 2012

All times are specified in Local Standard Time (LST). Add 1 hour to adjust for Daylight Saving Time where and when it is observed.

MONCTON INTL A
NEW BRUNSWICK

46°06'44.000" N
64°40'43.000" W
70.70 m
8103201
71705
YQM

Download Data

Hourly Data (June 2012)
Hourly Data Report for June 21, 2012
Temp Definition
°C
Dew Point Temp Definition
°C
Rel Hum Definition
%
Wind Dir Definition
10's deg

Wind Spd Definition
km/h
Visibility Definition
km
Stn Press Definition
kPa
Hmdx Definition


Wind Chill Definition


Weather Definition


TIME
00:00 15.9 12.1 78 32 13 10.0 99.85     LegendNANA
01:00 16.9 11.2 69 32 13 10.0 99.82     LegendNANA
02:00 15.7 10.9 73 30 14 10.0 99.82     Clear
03:00 14.8 10.9 77 30 12 10.0 99.76     LegendNANA
04:00 14.7 11.0 78 30 12 10.0 99.79     LegendNANA
05:00 13.7 10.7 82 23 9 10.0 99.82     Mainly Clear
06:00 15.8 11.0 73 31 10 10.0 99.83     LegendNANA
07:00 17.8 11.7 67 30 18 10.0 99.90     LegendNANA
08:00 19.7 13.3 66 33 10 10.0 99.91     Mainly Clear
09:00 21.3 14.1 63 2 15 10.0 99.91 25   LegendNANA
10:00 22.0 14.0 60 3 19 10.0 99.90 25   LegendNANA
11:00 22.1 14.1 60 2 28 10.0 99.93 26   Mainly Clear
12:00 22.6 14.6 60 1 21 10.0 99.92 26   LegendNANA
13:00 22.6 14.6 60 35 23 10.0 99.91 26   LegendNANA
14:00 23.0 15.2 61 1 22 10.0 99.90 27   Mainly Clear
15:00 23.5 16.2 63 3 13 10.0 99.89 28   LegendNANA
16:00 22.4 14.9 62 4 18 10.0 99.91 26   LegendNANA
17:00 22.1 15.3 65 5 17 10.0 99.88 26   Mainly Clear
18:00 21.4 15.6 69 4 10 10.0 99.88 26   LegendNANA
19:00 20.0 15.5 75 8 15 10.0 99.92     LegendNANA
20:00 16.8 14.3 85 6 8 10.0 99.98     Mainly Clear
21:00 14.7 13.3 91 7 8 10.0 100.00     LegendNANA
22:00 14.6 13.5 93 10 7 10.0 100.00     LegendNANA
23:00 13.1 12.3 95 9 7 10.0 100.01     Mainly Clear

Notes on Data Quality.

Legend

  • E = Estimated
  • M = Missing
  • NA = Not Available
Date modified: